Time,TemperatureF,DewpointF,PressureIn,WindDirection,WindDirectionDegrees,WindSpeedMPH,WindSpeedGustMPH,Humidity,HourlyPrecipIn,Conditions,Clouds,dailyrainin,SoftwareType,DateUTC
2013-04-09 00:02:00,45.5,32.0,28.82,NNE,15,0.0,2.2,20,0.00,,,-99.99,wx200d/1.3,2013-04-09 04:02:00,
2013-04-09 00:06:00,45.5,32.0,28.82,NNE,12,0.0,0.0,20,0.00,,,-99.99,wx200d/1.3,2013-04-09 04:06:00,
2013-04-09 00:08:00,45.5,32.0,28.82,ENE,68,0.0,0.0,20,0.00,,,-99.99,wx200d/1.3,2013-04-09 04:08:00,
2013-04-09 00:16:00,45.5,32.0,28.82,ENE,68,0.0,0.0,20,0.00,,,-99.99,wx200d/1.3,2013-04-09 04:16:00,
2013-04-09 01:46:00,44.8,32.0,28.76,NNE,24,0.0,0.0,20,0.00,,,-99.99,wx200d/1.3,2013-04-09 05:46:00,
2013-04-09 01:52:00,44.8,32.0,28.76,SSW,197,0.0,0.0,20,0.00,,,-99.99,wx200d/1.3,2013-04-09 05:52:00,
2013-04-09 01:58:00,44.6,32.0,28.76,SSW,203,0.0,0.0,20,0.00,,,-99.99,wx200d/1.3,2013-04-09 05:58:00,
2013-04-09 02:04:00,44.6,32.0,28.76,NE,56,0.0,0.0,20,0.00,,,-99.99,wx200d/1.3,2013-04-09 06:04:00,
2013-04-09 02:10:00,44.6,32.0,28.76,SW,229,0.0,0.0,20,0.00,,,-99.99,wx200d/1.3,2013-04-09 06:10:00,
2013-04-09 02:16:00,44.4,32.0,28.76,SSW,200,0.0,0.0,20,0.00,,,-99.99,wx200d/1.3,2013-04-09 06:16:00,
2013-04-09 02:22:00,44.2,32.0,28.73,ENE,65,0.0,2.2,20,0.00,,,-99.99,wx200d/1.3,2013-04-09 06:22:00,
2013-04-09 02:28:00,44.1,32.0,28.73,NNW,341,0.0,2.2,20,0.00,,,-99.99,wx200d/1.3,2013-04-09 06:28:00,
2013-04-09 02:34:00,43.7,32.0,28.73,South,182,3.6,3.6,20,0.00,,,-99.99,wx200d/1.3,2013-04-09 06:34:00,
2013-04-09 02:40:00,43.5,32.0,28.73,NNE,19,0.0,0.0,20,0.00,,,-99.99,wx200d/1.3,2013-04-09 06:40:00,
2013-04-09 02:46:00,43.3,32.0,28.73,North,0,0.0,0.0,20,0.00,,,-99.99,wx200d/1.3,2013-04-09 06:46:00,
2013-04-09 02:52:00,43.2,32.0,28.73,North,349,0.0,0.0,20,0.00,,,-99.99,wx200d/1.3,2013-04-09 06:52:00,
2013-04-09 02:58:00,43.2,32.0,28.73,SSW,203,0.0,0.0,23,0.00,,,-99.99,wx200d/1.3,2013-04-09 06:58:00,
2013-04-09 03:04:00,43.2,32.0,28.70,SSE,158,0.0,3.1,23,0.00,,,-99.99,wx200d/1.3,2013-04-09 07:04:00,
2013-04-09 03:10:00,43.3,32.0,28.70,SE,136,0.0,0.0,23,0.00,,,-99.99,wx200d/1.3,2013-04-09 07:10:00,
2013-04-09 03:16:00,43.3,32.0,28.70,East,90,0.0,0.0,23,0.00,,,-99.99,wx200d/1.3,2013-04-09 07:16:00,
2013-04-09 03:22:00,43.3,32.0,28.70,SSW,212,0.0,0.0,23,0.00,,,-99.99,wx200d/1.3,2013-04-09 07:22:00,
2013-04-09 03:28:00,43.5,32.0,28.70,South,177,0.0,3.6,23,0.00,,,-99.99,wx200d/1.3,2013-04-09 07:28:00,
2013-04-09 03:34:00,43.9,32.0,28.70,SSW,194,2.7,0.0,25,0.00,,,-99.99,wx200d/1.3,2013-04-09 07:34:00,
2013-04-09 03:40:00,43.7,32.0,28.70,SE,136,0.0,8.7,23,0.00,,,-99.99,wx200d/1.3,2013-04-09 07:40:00,
2013-04-09 03:46:00,43.9,32.0,28.70,SSE,160,2.2,4.0,23,0.00,,,-99.99,wx200d/1.3,2013-04-09 07:46:00,
2013-04-09 03:52:00,44.1,32.0,28.70,WNW,289,0.0,0.0,23,0.00,,,-99.99,wx200d/1.3,2013-04-09 07:52:00,
2013-04-09 03:58:00,44.2,32.0,28.70,NW,326,2.2,2.2,23,0.00,,,-99.99,wx200d/1.3,2013-04-09 07:58:00,
2013-04-09 04:04:00,44.2,32.0,28.70,North,3,0.0,0.0,23,0.00,,,-99.99,wx200d/1.3,2013-04-09 08:04:00,
2013-04-09 04:10:00,44.2,32.0,28.70,NW,320,0.0,0.0,23,0.00,,,-99.99,wx200d/1.3,2013-04-09 08:10:00,
2013-04-09 04:16:00,44.2,32.0,28.70,NW,315,0.0,0.0,23,0.00,,,-99.99,wx200d/1.3,2013-04-09 08:16:00,
2013-04-09 04:22:00,44.4,32.0,28.73,NNW,343,0.0,0.0,23,0.00,,,-99.99,wx200d/1.3,2013-04-09 08:22:00,
2013-04-09 04:28:00,44.6,32.0,28.73,NNW,335,0.0,0.0,22,0.00,,,-99.99,wx200d/1.3,2013-04-09 08:28:00,
2013-04-09 04:34:00,43.7,32.0,28.70,NNW,335,0.0,0.0,23,0.00,,,-99.99,wx200d/1.3,2013-04-09 08:34:00,
2013-04-09 04:40:00,42.8,32.0,28.70,NNW,335,0.0,0.0,25,0.00,,,-99.99,wx200d/1.3,2013-04-09 08:40:00,
2013-04-09 04:46:00,42.4,32.0,28.70,NNW,335,0.0,0.0,28,0.00,,,-99.99,wx200d/1.3,2013-04-09 08:46:00,
2013-04-09 04:52:00,42.3,32.0,28.70,NNW,335,0.0,0.0,30,0.00,,,-99.99,wx200d/1.3,2013-04-09 08:52:00,
2013-04-09 04:58:00,42.1,32.0,28.70,NNW,335,0.0,0.0,31,0.00,,,-99.99,wx200d/1.3,2013-04-09 08:58:00,
2013-04-09 05:04:00,41.9,32.0,28.67,North,357,0.0,0.0,34,0.00,,,-99.99,wx200d/1.3,2013-04-09 09:04:00,
2013-04-09 05:10:00,41.7,32.0,28.67,SW,236,0.0,0.0,36,0.00,,,-99.99,wx200d/1.3,2013-04-09 09:10:00,
2013-04-09 05:16:00,41.7,32.0,28.67,SW,236,0.0,0.0,37,0.00,,,-99.99,wx200d/1.3,2013-04-09 09:16:00,
2013-04-09 05:22:00,41.7,32.0,28.64,NNW,331,0.0,0.0,38,0.00,,,-99.99,wx200d/1.3,2013-04-09 09:22:00,
2013-04-09 05:28:00,41.7,32.0,28.64,SSW,193,0.0,0.0,39,0.00,,,-99.99,wx200d/1.3,2013-04-09 09:28:00,
2013-04-09 05:34:00,42.1,32.0,28.67,SSE,151,0.0,0.0,39,0.00,,,-99.99,wx200d/1.3,2013-04-09 09:34:00,
2013-04-09 05:40:00,41.9,32.0,28.67,ENE,68,0.0,3.1,39,0.00,,,-99.99,wx200d/1.3,2013-04-09 09:40:00,
2013-04-09 05:46:00,41.7,32.0,28.67,ENE,71,0.0,0.0,39,0.00,,,-99.99,wx200d/1.3,2013-04-09 09:46:00,
2013-04-09 05:52:00,41.7,32.0,28.67,SSE,154,0.0,2.2,39,0.00,,,-99.99,wx200d/1.3,2013-04-09 09:52:00,
2013-04-09 05:58:00,41.5,32.0,28.67,ENE,58,0.0,0.0,40,0.00,,,-99.99,wx200d/1.3,2013-04-09 09:58:00,
2013-04-09 06:04:00,41.2,32.0,28.67,SSW,204,0.0,0.0,40,0.00,,,-99.99,wx200d/1.3,2013-04-09 10:04:00,
2013-04-09 06:10:00,41.0,32.0,28.67,SE,129,0.0,2.7,40,0.00,,,-99.99,wx200d/1.3,2013-04-09 10:10:00,
2013-04-09 06:16:00,41.0,32.0,28.67,ESE,106,0.0,0.0,40,0.00,,,-99.99,wx200d/1.3,2013-04-09 10:16:00,
2013-04-09 06:22:00,40.8,32.0,28.67,East,97,0.0,0.0,41,0.00,,,-99.99,wx200d/1.3,2013-04-09 10:22:00,
2013-04-09 06:28:00,40.8,32.0,28.67,SSE,163,0.0,0.0,41,0.00,,,-99.99,wx200d/1.3,2013-04-09 10:28:00,
2013-04-09 06:34:00,40.6,32.0,28.67,WSW,240,0.0,0.0,41,0.00,,,-99.99,wx200d/1.3,2013-04-09 10:34:00,
2013-04-09 06:40:00,40.5,32.0,28.67,WSW,244,0.0,0.0,41,0.00,,,-99.99,wx200d/1.3,2013-04-09 10:40:00,
2013-04-09 06:46:00,40.3,32.0,28.67,WSW,245,0.0,0.0,41,0.00,,,-99.99,wx200d/1.3,2013-04-09 10:46:00,
2013-04-09 06:52:00,40.3,32.0,28.67,WSW,245,0.0,0.0,41,0.00,,,-99.99,wx200d/1.3,2013-04-09 10:52:00,
2013-04-09 06:58:00,40.1,32.0,28.67,NNE,33,0.0,0.0,41,0.00,,,-99.99,wx200d/1.3,2013-04-09 10:58:00,
2013-04-09 07:04:00,40.3,32.0,28.64,NNE,22,0.0,0.0,42,0.00,,,-99.99,wx200d/1.3,2013-04-09 11:04:00,
2013-04-09 07:10:00,40.3,32.0,28.64,ENE,60,0.0,0.0,42,0.00,,,-99.99,wx200d/1.3,2013-04-09 11:10:00,
2013-04-09 07:16:00,40.8,32.0,28.64,East,98,0.0,0.0,43,0.00,,,-99.99,wx200d/1.3,2013-04-09 11:16:00,
2013-04-09 07:22:00,41.2,32.0,28.67,East,82,0.0,0.0,42,0.00,,,-99.99,wx200d/1.3,2013-04-09 11:22:00,
2013-04-09 07:28:00,41.5,32.0,28.67,NE,37,0.0,0.0,43,0.00,,,-99.99,wx200d/1.3,2013-04-09 11:28:00,
2013-04-09 07:34:00,42.1,32.0,28.64,SSE,162,0.0,0.0,43,0.00,,,-99.99,wx200d/1.3,2013-04-09 11:34:00,
2013-04-09 07:40:00,42.4,32.0,28.64,South,190,0.0,4.0,43,0.00,,,-99.99,wx200d/1.3,2013-04-09 11:40:00,
2013-04-09 07:46:00,42.8,32.0,28.64,South,190,2.7,3.1,43,0.00,,,-99.99,wx200d/1.3,2013-04-09 11:46:00,
2013-04-09 07:52:00,43.2,32.0,28.64,SW,221,3.1,3.1,44,0.00,,,-99.99,wx200d/1.3,2013-04-09 11:52:00,
2013-04-09 07:58:00,43.3,32.0,28.64,SSW,199,0.0,0.0,45,0.00,,,-99.99,wx200d/1.3,2013-04-09 11:58:00,
2013-04-09 08:04:00,43.7,32.0,28.67,SSW,192,0.0,4.0,45,0.00,,,-99.99,wx200d/1.3,2013-04-09 12:04:00,
2013-04-09 08:10:00,43.9,32.0,28.67,SW,230,0.0,0.0,46,0.00,,,-99.99,wx200d/1.3,2013-04-09 12:10:00,
2013-04-09 08:16:00,44.1,32.0,28.67,SW,231,0.0,0.0,46,0.00,,,-99.99,wx200d/1.3,2013-04-09 12:16:00,
2013-04-09 08:22:00,44.4,32.0,28.64,SW,221,0.0,0.0,47,0.00,,,-99.99,wx200d/1.3,2013-04-09 12:22:00,
2013-04-09 08:28:00,44.8,32.0,28.64,SW,234,0.0,0.0,47,0.00,,,-99.99,wx200d/1.3,2013-04-09 12:28:00,
2013-04-09 08:34:00,45.1,32.0,28.64,SW,229,0.0,0.0,48,0.00,,,-99.99,wx200d/1.3,2013-04-09 12:34:00,
2013-04-09 08:40:00,45.5,32.0,28.64,West,264,0.0,2.7,48,0.00,,,-99.99,wx200d/1.3,2013-04-09 12:40:00,
2013-04-09 08:46:00,45.9,32.0,28.64,SW,233,0.0,0.0,49,0.00,,,-99.99,wx200d/1.3,2013-04-09 12:46:00,
2013-04-09 08:52:00,46.0,32.0,28.64,SW,229,0.0,0.0,50,0.00,,,-99.99,wx200d/1.3,2013-04-09 12:52:00,
2013-04-09 08:58:00,46.4,32.0,28.64,WSW,255,2.7,3.1,50,0.00,,,-99.99,wx200d/1.3,2013-04-09 12:58:00,
2013-04-09 09:04:00,46.9,32.0,28.64,WSW,248,0.0,2.7,50,0.00,,,-99.99,wx200d/1.3,2013-04-09 13:04:00,
2013-04-09 09:10:00,47.3,32.0,28.64,SW,236,0.0,0.0,51,0.00,,,-99.99,wx200d/1.3,2013-04-09 13:10:00,
2013-04-09 09:16:00,47.3,32.0,28.64,ENE,70,0.0,2.2,51,0.00,,,-99.99,wx200d/1.3,2013-04-09 13:16:00,
2013-04-09 09:22:00,47.1,32.0,28.64,SE,145,0.0,0.0,50,0.00,,,-99.99,wx200d/1.3,2013-04-09 13:22:00,
2013-04-09 09:28:00,47.1,32.0,28.64,SSW,205,0.0,0.0,51,0.00,,,-99.99,wx200d/1.3,2013-04-09 13:28:00,
2013-04-09 09:34:00,47.1,32.0,28.67,North,0,0.0,0.0,50,0.00,,,-99.99,wx200d/1.3,2013-04-09 13:34:00,
2013-04-09 09:40:00,47.5,32.0,28.67,SW,231,0.0,2.2,51,0.00,,,-99.99,wx200d/1.3,2013-04-09 13:40:00,
2013-04-09 09:46:00,47.8,32.0,28.67,SW,232,2.7,2.7,51,0.00,,,-99.99,wx200d/1.3,2013-04-09 13:46:00,
2013-04-09 09:52:00,48.4,32.0,28.67,West,279,0.0,0.0,51,0.00,,,-99.99,wx200d/1.3,2013-04-09 13:52:00,
2013-04-09 09:58:00,49.1,32.0,28.67,West,280,2.2,2.2,51,0.00,,,-99.99,wx200d/1.3,2013-04-09 13:58:00,
2013-04-09 10:04:00,50.7,32.0,28.67,West,274,0.0,4.9,50,0.00,,,-99.99,wx200d/1.3,2013-04-09 14:04:00,
2013-04-09 10:10:00,52.9,34.0,28.67,West,273,0.0,3.1,46,0.00,,,-99.99,wx200d/1.3,2013-04-09 14:10:00,
2013-04-09 10:16:00,54.7,32.0,28.67,WSW,244,0.0,5.8,38,0.00,,,-99.99,wx200d/1.3,2013-04-09 14:16:00,
2013-04-09 10:22:00,56.3,32.0,28.67,WNW,291,0.0,0.0,26,0.00,,,-99.99,wx200d/1.3,2013-04-09 14:22:00,
2013-04-09 10:28:00,57.7,32.0,28.67,SE,134,3.6,0.0,19,0.00,,,-99.99,wx200d/1.3,2013-04-09 14:28:00,
2013-04-09 10:34:00,58.8,32.0,28.64,SSW,200,2.7,2.7,19,0.00,,,-99.99,wx200d/1.3,2013-04-09 14:34:00,
2013-04-09 10:40:00,60.1,32.0,28.64,NNE,28,0.0,0.0,17,0.00,,,-99.99,wx200d/1.3,2013-04-09 14:40:00,
2013-04-09 10:46:00,59.9,32.0,28.64,WSW,242,3.6,4.5,17,0.00,,,-99.99,wx200d/1.3,2013-04-09 14:46:00,
2013-04-09 10:52:00,57.9,32.0,28.67,North,11,6.7,6.7,17,0.00,,,-99.99,wx200d/1.3,2013-04-09 14:52:00,
2013-04-09 10:58:00,56.8,32.0,28.67,NW,307,3.1,3.6,17,0.00,,,-99.99,wx200d/1.3,2013-04-09 14:58:00,
2013-04-09 11:04:00,56.3,32.0,28.67,WNW,290,0.0,0.0,17,0.00,,,-99.99,wx200d/1.3,2013-04-09 15:04:00,
2013-04-09 11:10:00,55.9,32.0,28.67,NNE,25,3.1,0.0,17,0.00,,,-99.99,wx200d/1.3,2013-04-09 15:10:00,
2013-04-09 11:16:00,57.0,32.0,28.67,East,95,4.9,4.9,17,0.00,,,-99.99,wx200d/1.3,2013-04-09 15:16:00,
2013-04-09 11:22:00,59.4,32.0,28.64,SSW,196,5.4,7.6,17,0.00,,,-99.99,wx200d/1.3,2013-04-09 15:22:00,
2013-04-09 11:28:00,60.8,32.0,28.64,SSE,162,3.1,3.6,16,0.00,,,-99.99,wx200d/1.3,2013-04-09 15:28:00,
2013-04-09 11:34:00,61.7,32.0,28.64,WNW,297,3.1,8.1,16,0.00,,,-99.99,wx200d/1.3,2013-04-09 15:34:00,
2013-04-09 11:40:00,60.6,32.0,28.64,North,350,0.0,3.6,17,0.00,,,-99.99,wx200d/1.3,2013-04-09 15:40:00,
2013-04-09 11:46:00,61.3,32.0,28.64,East,82,3.6,4.0,16,0.00,,,-99.99,wx200d/1.3,2013-04-09 15:46:00,
2013-04-09 11:52:00,61.9,32.0,28.67,North,7,4.5,4.9,16,0.00,,,-99.99,wx200d/1.3,2013-04-09 15:52:00,
2013-04-09 11:58:00,60.8,32.0,28.67,East,87,4.5,4.5,16,0.00,,,-99.99,wx200d/1.3,2013-04-09 15:58:00,
2013-04-09 12:04:00,59.2,32.0,28.67,SE,145,4.5,4.5,17,0.00,,,-99.99,wx200d/1.3,2013-04-09 16:04:00,
2013-04-09 12:10:00,58.8,32.0,28.67,West,280,4.5,4.5,17,0.00,,,-99.99,wx200d/1.3,2013-04-09 16:10:00,
2013-04-09 12:16:00,58.8,32.0,28.67,NNE,12,3.1,3.1,17,0.00,,,-99.99,wx200d/1.3,2013-04-09 16:16:00,
2013-04-09 12:22:00,61.2,32.0,28.67,NNE,18,3.1,4.9,16,0.00,,,-99.99,wx200d/1.3,2013-04-09 16:22:00,
2013-04-09 12:28:00,62.2,32.0,28.67,North,4,4.5,4.5,16,0.00,,,-99.99,wx200d/1.3,2013-04-09 16:28:00,
2013-04-09 12:34:00,62.2,32.0,28.67,SSE,156,2.7,0.0,16,0.00,,,-99.99,wx200d/1.3,2013-04-09 16:34:00,
2013-04-09 12:40:00,62.2,32.0,28.67,SSW,205,4.0,4.0,16,0.00,,,-99.99,wx200d/1.3,2013-04-09 16:40:00,
2013-04-09 12:46:00,61.3,32.0,28.67,SE,139,5.8,8.1,16,0.00,,,-99.99,wx200d/1.3,2013-04-09 16:46:00,
2013-04-09 12:52:00,61.0,32.0,28.67,East,91,4.5,4.9,16,0.00,,,-99.99,wx200d/1.3,2013-04-09 16:52:00,
2013-04-09 12:58:00,62.4,32.0,28.67,South,186,7.6,7.6,16,0.00,,,-99.99,wx200d/1.3,2013-04-09 16:58:00,
2013-04-09 13:04:00,62.1,32.0,28.67,ESE,115,3.6,5.4,16,0.00,,,-99.99,wx200d/1.3,2013-04-09 17:04:00,
2013-04-09 13:10:00,62.6,32.0,28.67,NNW,338,7.2,7.2,16,0.00,,,-99.99,wx200d/1.3,2013-04-09 17:10:00,
2013-04-09 13:16:00,63.0,32.0,28.67,North,357,8.1,8.1,16,0.00,,,-99.99,wx200d/1.3,2013-04-09 17:16:00,
2013-04-09 13:22:00,62.8,32.0,28.67,NNE,20,4.0,8.3,16,0.00,,,-99.99,wx200d/1.3,2013-04-09 17:22:00,
2013-04-09 13:28:00,63.0,32.0,28.67,South,177,5.4,5.4,16,0.00,,,-99.99,wx200d/1.3,2013-04-09 17:28:00,
2013-04-09 13:34:00,63.5,32.0,28.67,North,10,4.5,4.5,16,0.00,,,-99.99,wx200d/1.3,2013-04-09 17:34:00,
2013-04-09 13:40:00,64.0,32.0,28.67,NE,35,3.1,3.1,16,0.00,,,-99.99,wx200d/1.3,2013-04-09 17:40:00,
2013-04-09 13:46:00,63.5,32.0,28.67,South,185,4.9,4.9,16,0.00,,,-99.99,wx200d/1.3,2013-04-09 17:46:00,
2013-04-09 13:52:00,64.0,32.0,28.70,NNW,338,2.7,3.1,16,0.00,,,-99.99,wx200d/1.3,2013-04-09 17:52:00,
2013-04-09 13:58:00,63.9,32.0,28.70,NNE,22,4.5,4.5,16,0.00,,,-99.99,wx200d/1.3,2013-04-09 17:58:00,
2013-04-09 14:04:00,64.2,32.0,28.70,West,261,2.7,3.6,16,0.00,,,-99.99,wx200d/1.3,2013-04-09 18:04:00,
2013-04-09 14:10:00,64.4,32.0,28.70,WSW,240,4.9,4.9,15,0.00,,,-99.99,wx200d/1.3,2013-04-09 18:10:00,
2013-04-09 14:16:00,63.5,32.0,28.70,South,175,2.2,3.1,16,0.00,,,-99.99,wx200d/1.3,2013-04-09 18:16:00,
2013-04-09 14:22:00,63.5,32.0,28.67,South,186,2.2,4.0,16,0.00,,,-99.99,wx200d/1.3,2013-04-09 18:22:00,
2013-04-09 14:28:00,63.7,32.0,28.67,NNE,33,3.1,4.5,16,0.00,,,-99.99,wx200d/1.3,2013-04-09 18:28:00,
2013-04-09 14:34:00,63.7,32.0,28.70,SW,217,2.7,3.6,16,0.00,,,-99.99,wx200d/1.3,2013-04-09 18:34:00,
2013-04-09 14:40:00,63.9,32.0,28.70,NNE,23,3.1,3.1,16,0.00,,,-99.99,wx200d/1.3,2013-04-09 18:40:00,
2013-04-09 14:46:00,63.7,32.0,28.70,NNW,331,4.0,6.3,16,0.00,,,-99.99,wx200d/1.3,2013-04-09 18:46:00,
2013-04-09 14:52:00,63.9,32.0,28.70,WSW,241,3.1,5.8,16,0.00,,,-99.99,wx200d/1.3,2013-04-09 18:52:00,
2013-04-09 14:58:00,63.9,32.0,28.70,SE,124,2.2,3.1,16,0.00,,,-99.99,wx200d/1.3,2013-04-09 18:58:00,
2013-04-09 15:04:00,63.5,32.0,28.70,WSW,241,2.2,4.0,16,0.00,,,-99.99,wx200d/1.3,2013-04-09 19:04:00,
2013-04-09 15:10:00,63.5,32.0,28.70,SSE,153,2.7,2.7,16,0.00,,,-99.99,wx200d/1.3,2013-04-09 19:10:00,
2013-04-09 15:16:00,63.1,32.0,28.70,NW,324,4.9,4.9,16,0.00,,,-99.99,wx200d/1.3,2013-04-09 19:16:00,
2013-04-09 15:22:00,62.6,32.0,28.70,North,4,4.9,5.4,16,0.00,,,-99.99,wx200d/1.3,2013-04-09 19:22:00,
2013-04-09 15:28:00,62.4,32.0,28.70,NW,324,2.7,2.7,16,0.00,,,-99.99,wx200d/1.3,2013-04-09 19:28:00,
2013-04-09 15:34:00,62.4,32.0,28.70,SE,125,3.1,3.1,16,0.00,,,-99.99,wx200d/1.3,2013-04-09 19:34:00,
2013-04-09 15:40:00,62.2,32.0,28.70,North,353,4.0,4.0,16,0.00,,,-99.99,wx200d/1.3,2013-04-09 19:40:00,
2013-04-09 15:46:00,62.4,32.0,28.70,SW,223,2.2,5.4,16,0.00,,,-99.99,wx200d/1.3,2013-04-09 19:46:00,
2013-04-09 15:52:00,62.2,32.0,28.70,WSW,240,3.1,3.6,16,0.00,,,-99.99,wx200d/1.3,2013-04-09 19:52:00,
2013-04-09 15:58:00,61.7,32.0,28.70,West,276,3.6,4.0,16,0.00,,,-99.99,wx200d/1.3,2013-04-09 19:58:00,
2013-04-09 16:04:00,61.2,32.0,28.70,ENE,66,2.7,2.7,16,0.00,,,-99.99,wx200d/1.3,2013-04-09 20:04:00,
2013-04-09 16:10:00,61.0,32.0,28.70,NE,35,3.6,4.0,16,0.00,,,-99.99,wx200d/1.3,2013-04-09 20:10:00,
2013-04-09 16:16:00,60.3,32.0,28.70,SW,230,0.0,3.6,17,0.00,,,-99.99,wx200d/1.3,2013-04-09 20:16:00,
2013-04-09 16:22:00,60.4,32.0,28.70,North,0,4.5,4.5,17,0.00,,,-99.99,wx200d/1.3,2013-04-09 20:22:00,
2013-04-09 16:28:00,60.3,32.0,28.70,South,183,2.2,4.9,17,0.00,,,-99.99,wx200d/1.3,2013-04-09 20:28:00,
2013-04-09 16:34:00,60.4,32.0,28.70,SE,126,4.0,4.0,17,0.00,,,-99.99,wx200d/1.3,2013-04-09 20:34:00,
2013-04-09 16:40:00,60.3,32.0,28.70,East,87,0.0,3.1,17,0.00,,,-99.99,wx200d/1.3,2013-04-09 20:40:00,
2013-04-09 16:48:00,59.9,32.0,28.70,SW,233,2.2,3.6,17,0.00,,,-99.99,wx200d/1.3,2013-04-09 20:48:00,
2013-04-09 16:54:00,59.4,32.0,28.70,WSW,256,2.7,3.1,17,0.00,,,-99.99,wx200d/1.3,2013-04-09 20:54:00,
2013-04-09 17:00:00,59.2,32.0,28.70,SSW,196,2.2,2.2,17,0.00,,,-99.99,wx200d/1.3,2013-04-09 21:00:00,
2013-04-09 17:06:00,59.0,32.0,28.73,WSW,247,0.0,4.0,17,0.00,,,-99.99,wx200d/1.3,2013-04-09 21:06:00,
2013-04-09 17:12:00,59.0,32.0,28.73,WSW,238,0.0,2.7,17,0.00,,,-99.99,wx200d/1.3,2013-04-09 21:12:00,
2013-04-09 17:18:00,59.4,32.0,28.73,West,261,0.0,4.9,17,0.00,,,-99.99,wx200d/1.3,2013-04-09 21:18:00,
2013-04-09 17:24:00,59.2,32.0,28.73,ENE,57,2.7,2.7,17,0.00,,,-99.99,wx200d/1.3,2013-04-09 21:24:00,
2013-04-09 17:30:00,59.2,32.0,28.73,NNE,30,2.7,0.0,17,0.00,,,-99.99,wx200d/1.3,2013-04-09 21:30:00,
2013-04-09 17:36:00,59.2,32.0,28.73,NW,304,0.0,2.2,17,0.00,,,-99.99,wx200d/1.3,2013-04-09 21:36:00,
2013-04-09 17:42:00,59.4,32.0,28.73,WSW,256,2.2,0.0,17,0.00,,,-99.99,wx200d/1.3,2013-04-09 21:42:00,
2013-04-09 17:48:00,59.0,32.0,28.73,SSW,200,3.6,3.6,17,0.00,,,-99.99,wx200d/1.3,2013-04-09 21:48:00,
2013-04-09 17:56:00,58.1,32.0,28.73,SW,233,4.0,4.0,17,0.00,,,-99.99,wx200d/1.3,2013-04-09 21:56:00,
2013-04-09 18:02:00,57.4,32.0,28.73,West,279,0.0,0.0,17,0.00,,,-99.99,wx200d/1.3,2013-04-09 22:02:00,
2013-04-09 18:08:00,56.8,32.0,28.76,East,79,0.0,0.0,17,0.00,,,-99.99,wx200d/1.3,2013-04-09 22:08:00,
2013-04-09 18:14:00,56.5,32.0,28.76,West,277,0.0,0.0,17,0.00,,,-99.99,wx200d/1.3,2013-04-09 22:14:00,
2013-04-09 18:20:00,56.5,32.0,28.73,SW,225,4.0,4.0,17,0.00,,,-99.99,wx200d/1.3,2013-04-09 22:20:00,
2013-04-09 18:26:00,56.3,32.0,28.73,South,187,3.1,3.1,17,0.00,,,-99.99,wx200d/1.3,2013-04-09 22:26:00,
2013-04-09 18:32:00,55.9,32.0,28.73,SSE,160,0.0,2.2,17,0.00,,,-99.99,wx200d/1.3,2013-04-09 22:32:00,
2013-04-09 18:38:00,55.8,32.0,28.73,WSW,249,0.0,2.2,17,0.00,,,-99.99,wx200d/1.3,2013-04-09 22:38:00,
2013-04-09 18:46:00,55.4,32.0,28.73,SSW,213,0.0,3.1,17,0.00,,,-99.99,wx200d/1.3,2013-04-09 22:46:00,
2013-04-09 18:52:00,55.0,32.0,28.73,WSW,246,0.0,0.0,18,0.00,,,-99.99,wx200d/1.3,2013-04-09 22:52:00,
2013-04-09 18:58:00,54.7,32.0,28.73,SW,215,0.0,0.0,18,0.00,,,-99.99,wx200d/1.3,2013-04-09 22:58:00,
2013-04-09 19:04:00,54.3,32.0,28.73,SSW,212,0.0,0.0,18,0.00,,,-99.99,wx200d/1.3,2013-04-09 23:04:00,
2013-04-09 19:10:00,54.0,32.0,28.73,WSW,247,0.0,0.0,18,0.00,,,-99.99,wx200d/1.3,2013-04-09 23:10:00,
2013-04-09 19:16:00,53.1,32.0,28.73,West,260,0.0,0.0,18,0.00,,,-99.99,wx200d/1.3,2013-04-09 23:16:00,
2013-04-09 19:22:00,52.9,32.0,28.73,WSW,243,0.0,0.0,18,0.00,,,-99.99,wx200d/1.3,2013-04-09 23:22:00,
2013-04-09 19:28:00,52.5,32.0,28.73,WSW,243,0.0,0.0,18,0.00,,,-99.99,wx200d/1.3,2013-04-09 23:28:00,
2013-04-09 19:34:00,51.8,32.0,28.73,WSW,243,0.0,0.0,18,0.00,,,-99.99,wx200d/1.3,2013-04-09 23:34:00,
2013-04-09 19:40:00,51.1,32.0,28.73,WSW,243,0.0,0.0,19,0.00,,,-99.99,wx200d/1.3,2013-04-09 23:40:00,
2013-04-09 19:46:00,50.5,32.0,28.73,WSW,243,0.0,0.0,16,0.00,,,-99.99,wx200d/1.3,2013-04-09 23:46:00,
2013-04-09 19:52:00,50.2,32.0,28.76,WSW,243,0.0,0.0,16,0.00,,,-99.99,wx200d/1.3,2013-04-09 23:52:00,
2013-04-09 19:58:00,50.0,32.0,28.76,WSW,243,0.0,0.0,16,0.00,,,-99.99,wx200d/1.3,2013-04-09 23:58:00,
2013-04-09 20:04:00,49.5,32.0,28.76,WSW,243,0.0,0.0,16,0.00,,,-99.99,wx200d/1.3,2013-04-10 00:04:00,
2013-04-09 20:10:00,49.3,32.0,28.76,WSW,243,0.0,0.0,16,0.00,,,-99.99,wx200d/1.3,2013-04-10 00:10:00,
2013-04-09 20:16:00,49.1,32.0,28.76,SSW,211,0.0,0.0,16,0.00,,,-99.99,wx200d/1.3,2013-04-10 00:16:00,
2013-04-09 20:22:00,48.9,32.0,28.76,SW,220,0.0,0.0,16,0.00,,,-99.99,wx200d/1.3,2013-04-10 00:22:00,
2013-04-09 20:28:00,48.9,32.0,28.76,SW,220,0.0,0.0,19,0.00,,,-99.99,wx200d/1.3,2013-04-10 00:28:00,
2013-04-09 20:34:00,48.9,32.0,28.79,SW,219,0.0,0.0,19,0.00,,,-99.99,wx200d/1.3,2013-04-10 00:34:00,
2013-04-09 20:40:00,48.7,32.0,28.79,SW,219,0.0,0.0,16,0.00,,,-99.99,wx200d/1.3,2013-04-10 00:40:00,
2013-04-09 20:46:00,48.4,32.0,28.79,SW,219,0.0,0.0,16,0.00,,,-99.99,wx200d/1.3,2013-04-10 00:46:00,
2013-04-09 20:52:00,48.2,32.0,28.79,SW,232,0.0,0.0,19,0.00,,,-99.99,wx200d/1.3,2013-04-10 00:52:00,
2013-04-09 20:58:00,48.0,32.0,28.79,SW,227,0.0,0.0,19,0.00,,,-99.99,wx200d/1.3,2013-04-10 00:58:00,
2013-04-09 21:04:00,48.0,32.0,28.79,SW,227,0.0,0.0,19,0.00,,,-99.99,wx200d/1.3,2013-04-10 01:04:00,
2013-04-09 21:10:00,48.0,32.0,28.79,SW,227,0.0,0.0,19,0.00,,,-99.99,wx200d/1.3,2013-04-10 01:10:00,
2013-04-09 21:16:00,48.0,32.0,28.79,SW,227,0.0,0.0,19,0.00,,,-99.99,wx200d/1.3,2013-04-10 01:16:00,
2013-04-09 21:22:00,48.2,32.0,28.79,SW,227,0.0,0.0,19,0.00,,,-99.99,wx200d/1.3,2013-04-10 01:22:00,
2013-04-09 21:28:00,48.4,32.0,28.79,SW,227,0.0,0.0,19,0.00,,,-99.99,wx200d/1.3,2013-04-10 01:28:00,
2013-04-09 21:34:00,48.0,32.0,28.79,SW,227,0.0,0.0,19,0.00,,,-99.99,wx200d/1.3,2013-04-10 01:34:00,
2013-04-09 21:40:00,47.8,32.0,28.79,SW,227,0.0,0.0,19,0.00,,,-99.99,wx200d/1.3,2013-04-10 01:40:00,
2013-04-09 21:46:00,47.5,32.0,28.79,SW,227,0.0,0.0,19,0.00,,,-99.99,wx200d/1.3,2013-04-10 01:46:00,
2013-04-09 21:52:00,47.5,32.0,28.79,SW,227,0.0,0.0,19,0.00,,,-99.99,wx200d/1.3,2013-04-10 01:52:00,
2013-04-09 21:58:00,47.8,32.0,28.79,SW,227,0.0,0.0,19,0.00,,,-99.99,wx200d/1.3,2013-04-10 01:58:00,
2013-04-09 22:04:00,48.2,32.0,28.79,SW,227,0.0,0.0,19,0.00,,,-99.99,wx200d/1.3,2013-04-10 02:04:00,
2013-04-09 22:10:00,48.6,32.0,28.79,WSW,240,0.0,0.0,19,0.00,,,-99.99,wx200d/1.3,2013-04-10 02:10:00,
2013-04-09 22:16:00,49.1,32.0,28.79,WSW,240,0.0,0.0,19,0.00,,,-99.99,wx200d/1.3,2013-04-10 02:16:00,
2013-04-09 22:22:00,49.1,32.0,28.79,WSW,240,0.0,0.0,19,0.00,,,-99.99,wx200d/1.3,2013-04-10 02:22:00,
2013-04-09 22:28:00,48.9,32.0,28.79,WSW,240,0.0,0.0,19,0.00,,,-99.99,wx200d/1.3,2013-04-10 02:28:00,
2013-04-09 22:34:00,48.2,32.0,28.76,WSW,240,0.0,0.0,19,0.00,,,-99.99,wx200d/1.3,2013-04-10 02:34:00,
2013-04-09 22:40:00,47.8,32.0,28.76,WSW,240,0.0,0.0,19,0.00,,,-99.99,wx200d/1.3,2013-04-10 02:40:00,
2013-04-09 22:46:00,47.8,32.0,28.76,WSW,240,0.0,0.0,19,0.00,,,-99.99,wx200d/1.3,2013-04-10 02:46:00,
2013-04-09 22:52:00,47.8,32.0,28.76,WSW,240,0.0,0.0,19,0.00,,,-99.99,wx200d/1.3,2013-04-10 02:52:00,
2013-04-09 22:58:00,47.8,32.0,28.76,WSW,240,0.0,0.0,19,0.00,,,-99.99,wx200d/1.3,2013-04-10 02:58:00,
2013-04-09 23:04:00,47.7,32.0,28.76,WSW,240,0.0,0.0,19,0.00,,,-99.99,wx200d/1.3,2013-04-10 03:04:00,
2013-04-09 23:10:00,47.5,32.0,28.76,WSW,240,0.0,0.0,19,0.00,,,-99.99,wx200d/1.3,2013-04-10 03:10:00,
2013-04-09 23:16:00,47.5,32.0,28.76,WSW,240,0.0,0.0,19,0.00,,,-99.99,wx200d/1.3,2013-04-10 03:16:00,
2013-04-09 23:22:00,47.3,32.0,28.73,WSW,240,0.0,0.0,19,0.00,,,-99.99,wx200d/1.3,2013-04-10 03:22:00,
2013-04-09 23:28:00,47.1,32.0,28.73,WSW,240,0.0,0.0,19,0.00,,,-99.99,wx200d/1.3,2013-04-10 03:28:00,
2013-04-09 23:34:00,46.9,32.0,28.73,WSW,240,0.0,0.0,19,0.00,,,-99.99,wx200d/1.3,2013-04-10 03:34:00,
2013-04-09 23:40:00,46.8,32.0,28.73,WSW,240,0.0,0.0,19,0.00,,,-99.99,wx200d/1.3,2013-04-10 03:40:00,
2013-04-09 23:46:00,46.8,32.0,28.73,WSW,240,0.0,0.0,19,0.00,,,-99.99,wx200d/1.3,2013-04-10 03:46:00,
2013-04-09 23:52:00,46.6,32.0,28.70,WSW,240,0.0,0.0,19,0.00,,,-99.99,wx200d/1.3,2013-04-10 03:52:00,
2013-04-09 23:58:00,46.6,32.0,28.70,WSW,240,0.0,0.0,19,0.00,,,-99.99,wx200d/1.3,2013-04-10 03:58:00,